Other Public Products
Issued by NWS Grand Forks, ND

Home | Current Version | Previous Version | Graphics & Text | Print | Product List | Glossary On
Versions: 1 2 3 4 5 6 7 8 9 10 11 12 13 14 15 16 17 18 19 20 21 22 23 24 25 26 27 28 29 30 31 32 33 34 35 36 37 38 39 40 41 42 43 44 45 46 47 48 49 50
000
FPUS83 KFGF 212231
OPUFGF
PRAIRIE TO PINES WEATHER ROUNDUP
NATIONAL WEATHER SERVICE EASTERN NORTH DAKOTA/GRAND FORKS ND
500 PM CDT TUE OCT 21 2014

 **SATELLITE DATA USED TO AUGMENT SKY COVER AT AUTOMATED STATIONS**
 *****  WEATHER ACROSS EASTERN NORTH DAKOTA  *****

CITY           SKY/WX    TMP DP  RH WIND       PRES   REMARKS
GRAND FORKS    SUNNY     65  42  43 SE30G37   29.85F
GRAND FORKS AF SUNNY     66  42  41 SE24G31   29.84F
GRAND CITY NWS   N/A     61 N/A N/A SE26        N/A
BUXTON           N/A     65  40  39 SE22G35     N/A
DEVILS LAKE    SUNNY     66  45  45 SE23G29   29.73S
FARGO          SUNNY     66  41  40 SE24G36   29.89S
WAHPETON ARPT  CLEAR     64  36  34 SE24G35   29.94R
$$

 *****  WEATHER ACROSS CENTRAL AND WESTERN NORTH DAKOTA  *****

CITY           SKY/WX    TMP DP  RH WIND       PRES   REMARKS
JAMESTOWN      SUNNY     75  42  30 SE21G29   29.77F
BISMARCK       SUNNY     81  49  32 S17       29.66F
MINOT          SUNNY     73  42  32 SE16      29.64F
MINOT AFB      SUNNY     72  45  38 SE14      29.63F
GARRISON         N/A     74  47  38 SE7       29.63F
WILLISTON      SUNNY     75  43  31 SE12      29.58F
DICKINSON      SUNNY     79  46  31 S13       29.60F
HETTINGER      SUNNY     82  44  26 S14G23    29.65F
$$

 *****  OTHER OBSERVATIONS NORTHEAST NORTH DAKOTA  *****

CITY           SKY/WX    TMP DP  RH WIND       PRES   REMARKS
WALHALLA         N/A     64  41  42 SE16G29   29.80S
LANGDON        FAIR      64  41  42 SE28G37   29.78S
CAVALIER       FAIR      63  41  45 SE16G30   29.81S
GRAFTON        FAIR      63  41  45 SE23G36   29.83S
CANDO          FAIR      64  43  45 SE16G24   29.74S
FORT TOTTEN      N/A     69  42  38 S17       29.95S
ROLLA          FAIR      63  41  45 S21G30    29.74S
RUGBY          FAIR      70  46  43 SE12G17   29.69S
 ***** THE ABOVE OBSERVATIONS ARE NON NWS ARE NOT QUALITY
        CONTROLLED AND MAY MIS-REPORT RAIN FOR SNOW...
$$

 *****  OTHER OBSERVATIONS SOUTHEAST NORTH DAKOTA *****

CITY           SKY/WX    TMP DP  RH WIND       PRES   REMARKS
COOPERSTOWN    NOT AVBL
VALLEY CITY    FAIR      66  45  45 SE20G31   29.83S
OAKES            N/A     77  45  31 SE21G29   29.82F
GWINNER        CLEAR     70  45  40 SE22G29   29.87S
SHEYENNE NWR     N/A     69  42  37 SE23      29.95S
BUFFALO          N/A     67  36  30 SE24        N/A
WYNDMERE         N/A     70  41  35 SE16        N/A
 ***** THE ABOVE OBSERVATIONS ARE NON NWS ARE NOT QUALITY
       CONTROLLED AND MAY MIS-REPORT RAIN FOR SNOW...
$$

  *****  WEATHER ACROSS NORTHERN MINNESOTA  *****

CITY           SKY/WX    TMP DP  RH WIND       PRES   REMARKS
FLAG ISLAND    SUNNY     52  41  66 SE14G20   29.98S
WARROAD        SUNNY     55  41  58 SE17G23   29.97F
ROSEAU         SUNNY     57  41  54 SE17      29.94F
HALLOCK        SUNNY     64  39  39 SE24G30   29.85F
THF RVR FALLS  SUNNY     61  39  44 SE23      29.92S
HALSTAD          N/A     63  37  38 SE26        N/A
FOSSTON        SUNNY     61  37  41 SE14G23   29.96R
BAUDETTE       SUNNY     54  37  52 SE10G18   30.02S
WASKISH        SUNNY     54  39  58 SE12G18   30.04S
CROOKSTON      SUNNY     63  41  45 S23G31    29.90F
$$
  *****  WEATHER ACROSS CENTRAL AND WEST MINNESOTA  *****

CITY           SKY/WX    TMP DP  RH WIND       PRES   REMARKS
BEMIDJI        SUNNY     54  37  51 SE20G28   30.02F
PARK RAPIDS    SUNNY     57  37  47 SE20      30.03S
WADENA         SUNNY     55  39  54 SE14G24   30.04R
DETROIT LAKES  SUNNY     59  41  51 SE20      29.99S
MOORHEAD       SUNNY     64  39  39 SE23G29   29.92S
FERGUS FALLS   SUNNY     63  37  39 SE15G29   29.98S
ELBOW LAKE     FAIR      61  41  48 SE24G30   29.98F
MORRIS MN      SUNNY     64  41  42 SE22G29   29.98S
STAPLES        SUNNY     55  37  50 SE15G21   30.06S
WHEATON        SUNNY     64  41  42 SE25G31   29.95S
$$
  *****  WEATHER ELSEWHERE ACROSS MINNESOTA  *****

CITY           SKY/WX    TMP DP  RH WIND       PRES   REMARKS
DULUTH         MOSUNNY   44  35  70 E14       30.18F
INTRNTL FALLS  SUNNY     49  35  58 SE12G22   30.09F
ELY            CLEAR     41  34  75 SE8       30.19S
CLOQUET        SUNNY     45  36  70 E9        30.17S
BRAINERD       SUNNY     54  39  57 VRB6      30.10S
HIBBING        SUNNY     47  34  60 SE14      30.15F
ALEXANDRIA     SUNNY     59  40  49 SE16G29   30.05R
SAINT CLOUD    SUNNY     59  39  47 SE14G21   30.11S
MINNEAPOLIS    SUNNY     57  40  52 SE15      30.13F
$$

  *****  WEATHER ACROSS SOUTH DAKOTA  *****

CITY           SKY/WX    TMP DP  RH WIND       PRES   REMARKS
SIOUX FALLS    SUNNY     72  44  36 SE13G23   29.97F
BROOKINGS      NOT AVBL
WATERTOWN      SUNNY     73  43  33 S21G29    29.92F
HURON          SUNNY     80  39  23 S13G24    29.85F
SISSETON         N/A     70  42  36 SE20G26   29.89F
ABERDEEN       SUNNY     80  42  25 S22G35    29.82F
MITCHELL       SUNNY     80  37  21 S21G31    29.89F
PIERRE         SUNNY     82  41  23 S25G32    29.75F
MOBRIDGE       SUNNY     83  44  25 S24G37    29.69S
RAPID CITY     SUNNY     80  43  26 S15       29.73S
$$

  *****  SOME WEATHER IN NEARBY STATES *****

CITY           SKY/WX    TMP DP  RH WIND       PRES   REMARKS
GLASGOW MT     MOSUNNY   75  45  34 W8        29.57R
GREAT FALLS MT LGT RAIN  46  45  93 W16       29.79R
CHEYENNE WY    PTSUNNY   65  36  34 W17       29.98R
SCOTTSBLUFF NE MOSUNNY   76  42  29 SE10      29.85F
OMAHA NE       SUNNY     73  41  31 SE12      30.03F
DES MOINES IA  SUNNY     66  43  43 E8        30.12R
DAVENPORT IA   SUNNY     57  37  47 NE12      30.18R
CHICAGO IL     CLOUDY    49  39  68 N8        30.21R
EAU CLAIRE WI  SUNNY     55  35  47 SE9       30.18F
LA CROSSE WI   SUNNY     58  36  43 E7        30.18S
$$

  *****  SOME NATIONAL WEATHER *****

CITY           SKY/WX    TMP DP  RH WIND       PRES   REMARKS
LA GUARDIA NY  MOCLDY    63  54  72 NE10      29.85R
RALEIGH NC     MOCLDY    67  50  54 CALM      29.85R
ATLANTA GA     SUNNY     73  49  42 NW13      29.95F
NEW ORLEANS LA MOSUNNY   79  53  40 E6        29.97F
OKLAHOMA CITY  MOSUNNY   81  56  42 SE14      30.02F
ALBUQUERQUE NM MOSUNNY   68  43  40 SW10      30.07F
SALT LAKE CITY PTSUNNY   60  33  36 NW13G20   30.01S
LOS ANGELES CA PTSUNNY   71  63  75 W14       29.86F
BOISE ID       SUNNY     58  37  45 NW5       30.04S
SEATTLE WA     CLOUDY    57  50  77 SE12      29.92F
$$

*** WEATHER ACROSS MANITOBA...SASKATCHEWAN AND ONTARIO ***
                ***ONTARIO***

CITY           SKY/WX    TMP DP  RH WIND       PRES   REMARKS
GERALDTON      CLEAR     36  28  75 SE6       30.28F
THUNDER BAY    CLEAR     41  32  70 SE9       30.28S
SIOUX LOOKOUT  CLEAR     45  34  65 S10       30.12F
TORONTO        CLOUDY    46  43  87 N14G21    30.03R
BIG TROUT LK   CLEAR     45  36  70 S14G21    30.00S
PICKLE LAKE    CLEAR     46  30  53 S12G17    30.13F
DRYDEN         CLEAR     45  36  70 SE17      30.09F
KENORA         MOSUNNY   50  36  57 S15G22    30.02
$$
                *** MANITOBA***

CITY           SKY/WX    TMP DP  RH WIND       PRES   REMARKS
BRANDON        MOSUNNY   66  45  45 S16G23    29.71S
DAUPHIN        SUNNY     63  45  51 SE18G24   29.66F
ISLAND LAKE    CLEAR     54  39  58 SE10G17   29.84F
PILOT MOUND      N/A     64  41  42 SE30G40     N/A
THE PAS        MOSUNNY   61  43  51 SE14      29.56F
THOMPSON       PTCLDY    57  45  62 S10G21    29.62F
WINNIPEG       MOSUNNY   61  41  48 SE26G36   29.83F
LYNN LAKE      CLEAR     54  43  66 SE8       29.52F
CHURCHILL      MOCLDY    41  37  87 SW9       29.63R
GILLAM         PTCLDY    57  39  51 S13G24    29.66F
$$
                ***SASKATCHEWAN***

CITY           SKY/WX    TMP DP  RH WIND       PRES   REMARKS
ESTEVAN        MOSUNNY   70  43  37 E14       29.59F
KINDERSLEY     PTSUNNY   63  39  42 W9        29.57S
LLOYDMINSTER   CLOUDY    57  39  51 NW12      29.59R
PRINCE ALBERT  CLOUDY    70  43  37 S5        29.51F
REGINA         MOSUNNY   70  46  43 SE13G21   29.56



USA.gov is the U.S. government's official web portal to all federal, state and local government web resources and services.